Location: Burera
(21.3780°N, 81.9534°E)
Time: 22:50:21
(UTC+00:00)

ASTRO E2 - Pass Details

Date: 13 August 2020
Orbit: 510 x 516 km, 31.4° (Epoch: 21 September)

Event Time Altitude Azimuth Distance (km) Brightness Sun altitude
Exits shadow 23:20:05 16° 228° (SW) 1,356 4.2 -11.9°
Maximum altitude 23:23:01 58° 153° (SSE) 591 3.0 -11.3°
Drops below altitude 10° 23:26:54 10° 73° (ENE) 1,713 7.0 -10.5°
Sets 23:29:09 0° 69° (ENE) 2,598 8.7 -10.0°
